Tracking 19193 objects as of 24-Jun-2018
HD Live streaming from Space Station
objects crossing your sky now

METEOR 1-23

Track METEOR 1-23 now!
10-day predictions
METEOR 1-23 is classified as:


NORAD ID: 8519
Int'l Code: 1975-124A
Perigee: 854.5 km
Apogee: 873.1 km
Inclination: 81.2 °
Period: 102.1 minutes
Semi major axis: 7234 km
RCS: 4.3645 m2 (large)
Launch date: December 25, 1975
Source: Commonwealth of Independent States (former USSR) (CIS)
Launch site: PLESETSK MISSILE AND SPACE COMPLEX (PKMTR)
aabbcc
Your satellite tracking list
Your tracking list is empty




NASA's NSSDC Master Catalog

Two Line Element Set (TLE):
1 08519U 75124A   18174.80892383 -.00000039  00000-0 -28989-4 0  9998
2 08519  81.2447  86.5922 0012882 309.0720  50.9304 14.10783767186038
Source of the keplerian elements: AFSPC